Weather History for Whitefield, NH

Change the Weather History Date:

Saturday, January 19, 2013

  Actual Average Record
Temperature  
Mean Temperature 14 °F -  
Max Temperature 27 °F 20 °F 39 °F (1999)
Min Temperature 1 °F 0 °F -23 °F (1997)
Degree Days  
Heating Degree Days 52    
Moisture  
Dew Point 11 °F    
Average Humidity 83    
Maximum Humidity 88    
Minimum Humidity 75    
Precipitation  
Precipitation 0.10 in - - ()
Sea Level Pressure  
Sea Level Pressure 30.03 in    
Wind  
Wind Speed 0 mph (North)    
Max Wind Speed 0 mph    
Max Gust Speed -    
Visibility 6 miles    
Events Snow    
Averages and records for this station are not official NWS values.
T = Trace of Precipitation, MM = Missing Value Source: NWS Daily Summary

Daily Weather History Graph

Daily Weather History Graph

Search for Another Location

Airport:

Trip Planner

Search our weather history database for the weather conditions in past years. The results will help you decide how hot, cold, wet, or windy it might be!

Date:

Astronomy

Jan. 19, 2013 Rise Set
Actual Time 7:16 AM EST 4:38 PM EST
Civil Twilight 6:44 AM EST 5:10 PM EST
Nautical Twilight 6:08 AM EST 5:45 PM EST
Astronomical Twilight 5:34 AM EST 6:20 PM EST
Moon 11:05 AM EST (1/19) 12:44 AM EST (1/19)
Length of Visible Light 10h 25m
Length of Day
9h 22m
First Quarter, 57% of the Moon is Illuminated
Jan 19
First Quarter
Jan 26
Full
Feb 3
Last Quarter
Feb 10
New
Feb 17
First Quarter

Hourly Weather History & Observations

Time (EST) Temp. Dew Point Humidity Pressure Visibility Wind Dir Wind Speed Gust Speed Precip Events Conditions
12:52 AM 1.0 °F -4.0 °F 79% 30.27 in 10.0 mi Calm Calm - N/A   Overcast
1:52 AM 3.0 °F -2.0 °F 80% 30.24 in 8.0 mi Calm Calm - 0.00 in Snow Light Snow
2:52 AM 6.1 °F 1.0 °F 80% 30.21 in 9.0 mi Calm Calm - 0.00 in Snow Light Snow
3:52 AM 7.0 °F 3.0 °F 84% 30.17 in 9.0 mi Calm Calm - 0.00 in   Overcast
4:32 AM 8.6 °F 3.2 °F 79% 30.07 in 2.5 mi Calm Calm - 0.00 in Snow Light Snow
4:52 AM 9.0 °F 5.0 °F 84% 30.14 in 1.2 mi Calm Calm - 0.01 in Snow Light Snow
4:59 AM 8.6 °F 5.0 °F 85% 30.06 in 1.0 mi Calm Calm - 0.01 in Snow Light Snow
5:09 AM 8.6 °F 5.0 °F 85% 30.05 in 1.2 mi Calm Calm - 0.02 in Snow Light Snow
5:39 AM 10.4 °F 6.8 °F 85% 30.04 in 1.0 mi Calm Calm - 0.04 in Snow Light Snow
5:52 AM 10.0 °F 6.1 °F 84% 30.12 in 0.8 mi Calm Calm - 0.05 in Snow Light Snow
6:08 AM 10.4 °F 6.8 °F 85% 30.04 in 1.2 mi Calm Calm - 0.02 in Snow Light Snow
6:20 AM 10.4 °F 6.8 °F 85% 30.04 in 1.5 mi Calm Calm - 0.02 in Snow Light Snow
6:29 AM 10.4 °F 6.8 °F 85% 30.04 in 2.5 mi Calm Calm - 0.02 in Snow Light Snow
6:31 AM 10.4 °F 6.8 °F 85% 30.04 in 3.0 mi Calm Calm - 0.02 in Snow Light Snow
6:52 AM 10.9 °F 7.0 °F 84% 30.12 in 3.0 mi Calm Calm - 0.03 in Snow Light Snow
7:05 AM 10.4 °F 6.8 °F 85% 30.03 in 2.5 mi Calm Calm - 0.00 in Snow Light Snow
7:30 AM 12.2 °F 6.8 °F 79% 30.02 in 1.5 mi Calm Calm - 0.00 in Snow Light Snow
7:52 AM 12.0 °F 8.1 °F 84% 30.10 in 1.8 mi Calm Calm - 0.01 in Snow Light Snow
8:02 AM 12.2 °F 8.6 °F 85% 30.01 in 2.5 mi Calm Calm - 0.00 in Snow Light Snow
8:09 AM 12.2 °F 8.6 °F 85% 30.01 in 4.0 mi Calm Calm - 0.00 in Snow Light Snow
8:52 AM 14.0 °F 9.0 °F 80% 30.09 in 10.0 mi Calm Calm - 0.00 in   Overcast
9:52 AM 16.0 °F 12.0 °F 84% 30.09 in 10.0 mi Calm Calm - N/A   Overcast
10:52 AM 19.0 °F 14.0 °F 81% 30.05 in 10.0 mi Calm Calm - N/A   Overcast
11:52 AM 21.9 °F 16.0 °F 78% 29.99 in 10.0 mi Calm Calm - N/A   Overcast
12:52 PM 23.0 °F 17.1 °F 78% 29.97 in 10.0 mi Calm Calm - N/A   Overcast
1:52 PM 24.1 °F 17.1 °F 75% 29.97 in 10.0 mi Calm Calm - N/A   Overcast
2:52 PM 25.0 °F 18.0 °F 75% 29.96 in 10.0 mi Calm Calm - N/A   Overcast
3:52 PM 25.0 °F 19.9 °F 81% 29.96 in 10.0 mi Calm Calm - N/A   Overcast
4:52 PM 26.1 °F 21.9 °F 84% 29.95 in 10.0 mi Calm Calm - N/A   Overcast
5:52 PM 26.1 °F 21.9 °F 84% 29.95 in 10.0 mi Calm Calm - N/A   Overcast
6:52 PM 26.1 °F 21.9 °F 84% 29.94 in 10.0 mi Calm Calm - N/A   Overcast
7:52 PM 25.0 °F 21.9 °F 88% 29.93 in 10.0 mi Calm Calm - N/A   Mostly Cloudy
8:52 PM 24.1 °F 21.0 °F 88% 29.91 in 10.0 mi Calm Calm - N/A   Mostly Cloudy
9:52 PM 25.0 °F 21.9 °F 88% 29.87 in 10.0 mi Calm Calm - N/A   Overcast
10:52 PM 26.1 °F 23.0 °F 88% 29.83 in 10.0 mi Calm Calm - N/A   Overcast
11:52 PM 27.0 °F 23.0 °F 85% 29.78 in 10.0 mi Calm Calm - N/A   Overcast